Regional Weather Roundup
Issued by NWS Green Bay, WI

Home | Current Version | Previous Version | Text Only | Print | Product List | Glossary On
Versions: 1 2 3 4 5 6 7 8 9 10 11 12 13 14 15 16 17 18 19 20 21 22 23 24 25 26 27 28 29 30 31 32 33 34 35 36 37 38 39 40 41 42 43 44 45 46 47 48 49 50
000
ASUS43 KGRB 261811
RWRGRB

NORTH-CENTRAL AND NORTHEAST WISCONSIN REGIONAL WEATHER ROUNDUP
NATIONAL WEATHER SERVICE GREEN BAY WI
100 PM CDT THU APR 26 2018

WIZ005-009-010>012-018-019-261900-
NORTH CENTRAL WISCONSIN

CITY           SKY/WX    TMP DP  RH WIND       PRES   REMARKS
IRONWOOD       FAIR      52  32  46 N14       29.81R
MANITOWISH WTR FAIR      55  31  39 SW7       29.79F
ARBOR VITAE    FAIR      59  32  35 SW13      29.79F
EAGLE RIVER    FAIR      58  27  31 W10       29.79F
LAND O LAKES   FAIR      58  28  31 W7        29.80F
RHINELANDER    FAIR      60  32  34 SW10      29.81F
PHILLIPS       FAIR      58  33  38 SW9       29.80S
ANTIGO         FAIR      57  36  44 SW15      29.82F
TOMAHAWK       FAIR      59  31  34 SW7       29.82F
MERRILL        FAIR      60  35  38 SW12G18   29.83S
$$

WIZ013-073-261900-
NORTHEAST WISCONSIN

CITY           SKY/WX    TMP DP  RH WIND       PRES   REMARKS
IRON MOUNTAIN  FAIR      62  22  21 SW7       29.77F
MARINETTE      FAIR      59  34  39 S15       29.82F
OCONTO         FAIR      60  31  32 W15       29.83F
$$

WIZ017-030-035>037-045-261900-
CENTRAL WISCONSIN

CITY           SKY/WX    TMP DP  RH WIND       PRES   REMARKS
MEDFORD        FAIR      59  33  37 W10G16    29.82F
WAUSAU         FAIR      61  31  32 W15G22    29.81F
MOSINEE        MOSUNNY   61  30  31 SW9G18    29.85F
MARSHFIELD     FAIR      62  33  33 W13G18    29.83F
WISC RAPIDS    FAIR      65  28  24 SW14      29.85F
STEVENS POINT  FAIR      59  30  32 W7        29.84F
WAUPACA        FAIR      64  28  25 SW8G16    29.85F
SHAWANO        FAIR      63  31  29 SW9       29.84F
CLINTONVILLE   FAIR      61  28  28 W10G16    29.85F
WAUTOMA        FAIR      63  28  26 SW14G21   29.86F
$$

WIZ038-039-048-051-261900-
FOX VALLEY

CITY           SKY/WX    TMP DP  RH WIND       PRES   REMARKS
NWS GREEN BAY  FAIR      60  37  42 S12       29.86F
APPLETON       MOSUNNY   61  27  27 SW13      29.85F
OSHKOSH        FAIR      61  33  35 VRB6      29.87F
FOND DU LAC    FAIR      60  34  37 SW8G16    29.88F
$$

WIZ022-050-052-261900-
EAST CENTRAL WISCONSIN

CITY           SKY/WX    TMP DP  RH WIND       PRES   REMARKS
EPHRAIM        FAIR      58  29  32 SW12G20   29.83F
WASHINGTON ISL FAIR      48  35  60 S12       29.83F
STURGEON BAY   FAIR      60  30  32 SW16      29.85F
MANITOWOC      FAIR      60  31  33 SW13      29.88F
SHEBOYGAN      FAIR      62  33  33 W14G21    29.88F
$$

LMZ563-521-522-541>543-261900-
LAKESHORE

STATION/POSITION TIME  TEMP    WIND        PRES    VSBY  WAVE
                       AIR SEA DIR/SP/G                  HT/PER
                 (UTC) (F)     (DEG/KT/KT) (MB)    (MI)  (FT/S)
SHEBOYGAN LKSHOR 1800   42     170/ 20/ 23 1012.3F
KEWAUNEE LKSHORE 1742   41     160/ 12/ 13 1011.0F
NORTHPORT PIER   1740   47                 1010.5F
SISTER BAY LKSHO 1712   54     210/  7/ 10   N/A
MENOMINEE LKSHOR 1736   50     170/ 11/ 13 1010.0F
$$




USA.gov is the U.S. government's official web portal to all federal, state and local government web resources and services.